Location: Lafig�re
(44.4503°N, 4.0357°E)
Time: 16:40:30
(UTC+00:00)

BREEZE-M R/B - Pass Details

Date: 24 September 2020
Orbit: 266 x 23045 km, 49.2° (Epoch: 25 October)

Event Time Altitude Azimuth Distance (km) Brightness Sun altitude
Rises 18:54:26 0° 246° (WSW) 9,831 10.6 -14.6°
Reaches altitude 10° 19:04:25 10° 249° (WSW) 5,934 9.3 -16.3°
Maximum altitude 19:16:12 76° 336° (NNW) 833 4.2 -18.3°
Enters shadow 19:17:59 29° 58° (ENE) 1,084 4.4 -18.6°
